Location: Cluj-Napoca
(46.7712°N, 23.6236°E)
Time: 12:34:00
(UTC+03:00)

ISS - Pass Details

Date: 12 May 2021
Orbit: 417 x 422 km, 51.6° (Epoch: 15 May)

Event Time Altitude Azimuth Distance (km) Brightness Sun altitude
Exits shadow 02:18:16 35° 339° (NNW) 697 -2.3 -23.9°
Maximum altitude 02:18:34 36° 353° (N) 685 -2.2 -23.8°
Drops below altitude 10° 02:21:44 10° 62° (ENE) 1,506 -0.4 -23.7°
Sets 02:23:57 0° 71° (ENE) 2,372 0.5 -23.6°
